Glencoe, MN

7:35 AM CST on December 08, 2019 (GMT -0600)
Glencoe Municipal

Weather History for KGYL - October, 2019

Change the Weather History Date:

Friday, October 4, 2019

  Actual Average (WUND) Record (WUND)
Temperature  
Mean Temperature 47 °F -  
Max Temperature 50 °F - - (-1)
Min Temperature 44 °F - - (-1)
Degree Days  
Heating Degree Days 18    
Moisture  
Dew Point 41 °F    
Average Humidity 81    
Maximum Humidity 100    
Minimum Humidity 66    
Precipitation  
Precipitation 0.00 in - - ()
Sea Level Pressure  
Sea Level Pressure 30.34 in    
Wind  
Wind Speed 4 mph (ESE)    
Max Wind Speed 12 mph    
Max Gust Speed 17 mph    
Visibility 10 miles    
Events      
Averages and records for this station are not official NWS values.
T = Trace of Precipitation, MM = Missing Value Source: NWS Daily Summary

Daily Weather History Graph

Daily Weather History Graph

Search for Another Location

Airport or City:

Astronomy

Oct. 04, 2019 Rise Set
Actual Time 7:17 AM CDT 6:51 PM CDT
Civil Twilight 6:48 AM CDT 7:20 PM CDT
Nautical Twilight 6:14 AM CDT 7:54 PM CDT
Astronomical Twilight 5:40 AM CDT 8:28 PM CDT
Moon 2:04 PM CDT (10/4) 11:07 PM CDT (10/4)
Length of Visible Light 12h 32m
Length of Day
11h 33m
Waxing Crescent, 40% of the Moon is Illuminated
Oct 4
Waxing Crescent
Oct 5
First Quarter
Oct 13
Full
Oct 21
Last Quarter
Oct 27
New

Hourly Weather History & Observations

Time (CDT) Temp. Windchill Dew Point Humidity Pressure Visibility Wind Dir Wind Speed Gust Speed Precip Events Conditions
12:59 AM 44.6 °F - 41.0 °F 87% 30.39 in 10.0 mi Calm Calm - N/A   Overcast
1:59 AM 44.6 °F - 42.8 °F 93% 30.40 in 10.0 mi Calm Calm - N/A   Overcast
2:59 AM 44.6 °F - 44.6 °F 100% 30.41 in 10.0 mi Calm Calm - N/A   Overcast
3:59 AM 44.6 °F - 44.6 °F 100% 30.42 in 10.0 mi Calm Calm - N/A   Overcast
4:59 AM 44.6 °F - 44.6 °F 100% 30.43 in 10.0 mi Calm Calm - N/A   Overcast
5:59 AM 44.6 °F - 44.6 °F 100% 30.44 in 10.0 mi Calm Calm - N/A   Overcast
6:59 AM 44.6 °F 43.1 °F 42.8 °F 93% 30.45 in 10.0 mi ESE 3.5 mph - N/A   Overcast
7:59 AM 44.6 °F 40.7 °F 39.2 °F 81% 30.44 in 10.0 mi East 6.9 mph - N/A   Overcast
8:59 AM 44.6 °F 41.4 °F 37.4 °F 76% 30.45 in 10.0 mi East 5.8 mph - N/A   Overcast
9:59 AM 46.4 °F 41.9 °F 37.4 °F 71% 30.44 in 10.0 mi ESE 9.2 mph - N/A   Overcast
11:59 AM 48.2 °F - 37.4 °F 66% 30.42 in 10.0 mi ESE 10.4 mph - N/A   Overcast
12:59 PM 48.2 °F - 37.4 °F 66% 30.40 in 10.0 mi SSE 10.4 mph - N/A   Overcast
1:59 PM 48.2 °F - 37.4 °F 66% 30.38 in 10.0 mi SE 8.1 mph - N/A   Overcast
2:59 PM 50.0 °F - 39.2 °F 66% 30.34 in 10.0 mi SE 9.2 mph 17.3 mph N/A   Overcast
3:59 PM 50.0 °F - 39.2 °F 66% 30.32 in 10.0 mi SE 9.2 mph - N/A   Overcast
4:59 PM 50.0 °F - 39.2 °F 66% 30.30 in 10.0 mi SE 8.1 mph 16.1 mph N/A   Overcast
5:59 PM 50.0 °F - 41.0 °F 71% 30.27 in 10.0 mi East 10.4 mph - N/A   Overcast
6:59 PM 46.4 °F 42.4 °F 41.0 °F 81% 30.25 in 10.0 mi East 8.1 mph - N/A   Clear
7:59 PM 46.4 °F 41.9 °F 41.0 °F 81% 30.22 in 10.0 mi East 9.2 mph - N/A   Scattered Clouds
8:59 PM 46.4 °F 41.5 °F 41.0 °F 81% 30.22 in 10.0 mi East 10.4 mph - N/A   Mostly Cloudy
9:59 PM 46.4 °F 41.1 °F 41.0 °F 81% 30.19 in 10.0 mi East 11.5 mph 17.3 mph N/A   Overcast
10:59 PM 48.2 °F - 42.8 °F 82% 30.17 in 10.0 mi ESE 11.5 mph - N/A   Overcast
11:59 PM 48.2 °F - 42.8 °F 82% 30.16 in 10.0 mi East 8.1 mph - N/A   Overcast